User: anonymous   Login
Location: Baili�vre
(50.0696°N, 4.2409°E)
Time: 11:56:45
(UTC+00:00)
Language:

Spot 4 - Orbit

View from above orbital plane
View from above orbital plane
View from above satellite
View from above satellite

Ground track
Ground track

The orbit data is extracted from the following two-line orbital elements,

1 25260U 98017A   20297.18905404  .00000034  00000-0  18927-4 0  9999
2 25260  98.2909  25.5737 0014256 107.2239 253.0518 14.53639066179650
Epoch (UTC): 23 October 2020 04:32:14
Eccentricity: 0.0014256
inclination: 98.2909°
perigee height: 703 km
apogee height: 724 km
right ascension of ascending node: 25.5737°
argument of perigee: 107.2239°
revolutions per day: 14.53639066
mean anomaly at epoch: 253.0518°
orbit number at epoch: 17965

The dashed part of the orbit path shows where the satellite is in the earth's shadow,  

DLR